Fort Leonard Wood, MO

4:56 AM CDT on September 23, 2017 (GMT -0500)
Waynesville Regional At Forney Field

Weather History for KTBN - January, 2013

Change the Weather History Date:

Sunday, January 13, 2013

  Actual Average Record
Temperature  
Mean Temperature 21 °F -  
Max Temperature 28 °F 38 °F 54 °F (2014)
Min Temperature 13 °F 25 °F -4 °F (1997)
Degree Days  
Heating Degree Days 44    
Moisture  
Dew Point 21 °F    
Average Humidity 94    
Maximum Humidity 100    
Minimum Humidity 86    
Precipitation  
Precipitation 0.00 in - - ()
Sea Level Pressure  
Sea Level Pressure 30.15 in    
Wind  
Wind Speed 2 mph (NW)    
Max Wind Speed 6 mph    
Max Gust Speed -    
Visibility 10 miles    
Events Snow    
Averages and records for this station are not official NWS values.
T = Trace of Precipitation, MM = Missing Value Source: NWS Daily Summary

Daily Weather History Graph

Daily Weather History Graph

Search for Another Location

Airport or City:

Trip Planner

Search our weather history database for the weather conditions in past years. The results will help you decide how hot, cold, wet, or windy it might be!

Date:

Astronomy

Jan. 13, 2013 Rise Set
Actual Time 7:23 AM CST 5:11 PM CST
Civil Twilight 6:54 AM CST 5:40 PM CST
Nautical Twilight 6:22 AM CST 6:13 PM CST
Astronomical Twilight 5:50 AM CST 6:44 PM CST
Moon 8:25 AM CST (1/13) 7:47 PM CST (1/13)
Length of Visible Light 10h 46m
Length of Day
9h 48m
Waxing Crescent, 5% of the Moon is Illuminated
Jan 13
Waxing Crescent
Jan 18
First Quarter
Jan 26
Full
Feb 3
Last Quarter
Feb 10
New

Hourly Weather History & Observations

Time (CST) Temp. Windchill Dew Point Humidity Pressure Visibility Wind Dir Wind Speed Gust Speed Precip Events Conditions
12:08 AM 28.4 °F - 28.4 °F 100% 29.95 in 10.0 mi Calm Calm - N/A   Overcast
12:20 AM 28.4 °F 23.3 °F 28.4 °F 100% 29.95 in 10.0 mi NNW 4.6 mph - N/A   Overcast
12:55 AM 28.0 °F - 27.9 °F 99% 29.97 in 10.0 mi Calm Calm - N/A   Overcast
1:28 AM 28.4 °F - 26.6 °F 93% 29.95 in 10.0 mi Calm Calm - N/A   Overcast
1:55 AM 27.3 °F 23.4 °F 27.1 °F 99% 29.99 in 10.0 mi NW 3.5 mph - N/A   Overcast
2:36 AM 26.6 °F 22.6 °F 26.6 °F 100% 30.01 in 10.0 mi NW 3.5 mph - N/A   Overcast
2:55 AM 26.1 °F 21.9 °F 25.9 °F 99% 30.03 in 10.0 mi NW 3.5 mph - N/A   Overcast
3:08 AM 26.6 °F 22.6 °F 24.8 °F 93% 30.01 in 10.0 mi NNW 3.5 mph - N/A   Overcast
3:46 AM 24.8 °F 20.5 °F 24.8 °F 100% 30.03 in 10.0 mi NNW 3.5 mph - N/A   Overcast
3:49 AM 24.8 °F 20.5 °F 24.8 °F 100% 30.02 in 10.0 mi NNW 3.5 mph - N/A   Overcast
3:55 AM 25.5 °F 21.3 °F 25.3 °F 99% 30.02 in 10.0 mi NNW 3.5 mph - N/A   Overcast
4:02 AM 24.8 °F 20.5 °F 24.8 °F 100% 30.02 in 9.0 mi Variable 3.5 mph - N/A   Overcast
4:08 AM 24.8 °F 20.5 °F 24.8 °F 100% 30.02 in 9.0 mi NW 3.5 mph - N/A   Overcast
4:43 AM 24.8 °F 20.5 °F 23.0 °F 93% 30.02 in 9.0 mi NW 3.5 mph - N/A   Overcast
4:55 AM 24.1 °F 19.7 °F 23.9 °F 99% 30.02 in 9.0 mi NNW 3.5 mph - N/A   Overcast
5:32 AM 23.0 °F 18.4 °F 23.0 °F 100% 30.04 in 10.0 mi NNW 3.5 mph - N/A   Overcast
5:44 AM 23.0 °F 18.4 °F 23.0 °F 100% 30.06 in 10.0 mi North 3.5 mph - N/A   Overcast
5:55 AM 23.5 °F 17.6 °F 23.2 °F 99% 30.05 in 10.0 mi North 4.6 mph - N/A   Overcast
5:59 AM 23.0 °F 18.4 °F 23.0 °F 100% 30.07 in 10.0 mi NNW 3.5 mph - N/A   Overcast
6:21 AM 23.0 °F - 23.0 °F 100% 30.09 in 10.0 mi Calm Calm - N/A   Overcast
6:55 AM 23.2 °F - 22.1 °F 96% 30.13 in 10.0 mi Calm Calm - N/A   Overcast
7:55 AM 22.8 °F - 21.6 °F 95% 30.11 in 10.0 mi Calm Calm - N/A   Overcast
8:12 AM 23.0 °F 18.4 °F 21.2 °F 93% 30.10 in 10.0 mi North 3.5 mph - N/A   Overcast
8:55 AM 22.3 °F 17.6 °F 21.2 °F 96% 30.11 in 10.0 mi NW 3.5 mph - N/A   Overcast
9:37 AM 21.2 °F - 19.4 °F 93% 30.18 in 10.0 mi Calm Calm - N/A   Overcast
9:44 AM 21.2 °F 14.9 °F 21.2 °F 100% 30.17 in 10.0 mi NW 4.6 mph - N/A   Overcast
9:53 AM 21.2 °F 16.4 °F 19.4 °F 93% 30.17 in 10.0 mi NW 3.5 mph - N/A   Overcast
9:55 AM 21.6 °F 16.8 °F 19.9 °F 93% 30.17 in 10.0 mi NW 3.5 mph - 0.00 in   Overcast
10:43 AM 21.2 °F 16.4 °F 19.4 °F 93% 30.17 in 10.0 mi NW 3.5 mph - N/A   Overcast
10:49 AM 21.2 °F 16.4 °F 19.4 °F 93% 30.15 in 10.0 mi NW 3.5 mph - N/A   Overcast
10:55 AM 21.7 °F 17.0 °F 20.1 °F 93% 30.16 in 10.0 mi NNW 3.5 mph - N/A   Overcast
10:58 AM 21.2 °F 16.4 °F 19.4 °F 93% 30.16 in 10.0 mi NNW 3.5 mph - N/A   Overcast
11:04 AM 21.2 °F 14.9 °F 19.4 °F 93% 30.15 in 10.0 mi NW 4.6 mph - N/A   Overcast
11:51 AM 21.2 °F 16.4 °F 21.2 °F 100% 30.16 in 10.0 mi WNW 3.5 mph - N/A   Overcast
11:53 AM 21.2 °F 14.9 °F 21.2 °F 100% 30.16 in 10.0 mi NW 4.6 mph - N/A Snow Light Snow
11:55 AM 21.9 °F 17.2 °F 20.5 °F 94% 30.15 in 10.0 mi WNW 3.5 mph - 0.00 in Snow Light Snow
12:55 PM 21.9 °F 17.2 °F 20.1 °F 93% 30.16 in 10.0 mi Variable 3.5 mph - 0.00 in   Overcast
1:05 PM 21.2 °F 14.9 °F 19.4 °F 93% 30.15 in 10.0 mi NW 4.6 mph - N/A   Overcast
1:08 PM 21.2 °F 16.4 °F 19.4 °F 93% 30.15 in 10.0 mi NW 3.5 mph - N/A   Overcast
1:15 PM 21.2 °F 14.9 °F 19.4 °F 93% 30.16 in 10.0 mi WNW 4.6 mph - N/A   Overcast
1:55 PM 22.3 °F 17.6 °F 19.8 °F 90% 30.18 in 10.0 mi NW 3.5 mph - N/A   Overcast
2:55 PM 21.9 °F 17.2 °F 19.4 °F 90% 30.22 in 10.0 mi NW 3.5 mph - N/A   Mostly Cloudy
3:36 PM 23.0 °F 17.0 °F 21.2 °F 93% 30.25 in 10.0 mi Variable 4.6 mph - N/A   Overcast
3:42 PM 23.0 °F 17.0 °F 19.4 °F 86% 30.25 in 10.0 mi Variable 4.6 mph - N/A   Overcast
3:51 PM 23.0 °F 18.4 °F 21.2 °F 93% 30.25 in 10.0 mi NW 3.5 mph - N/A   Overcast
3:55 PM 23.9 °F 18.0 °F 21.2 °F 89% 30.25 in 10.0 mi NW 4.6 mph - N/A   Mostly Cloudy
4:21 PM 23.0 °F 15.8 °F 19.4 °F 86% 30.25 in 10.0 mi WNW 5.8 mph - N/A   Scattered Clouds
4:39 PM 23.0 °F - 19.4 °F 86% 30.25 in 10.0 mi Calm Calm - N/A   Mostly Cloudy
4:48 PM 23.0 °F 18.4 °F 19.4 °F 86% 30.25 in 10.0 mi Variable 3.5 mph - N/A   Scattered Clouds
4:55 PM 22.1 °F 17.4 °F 19.0 °F 88% 30.26 in 10.0 mi WNW 3.5 mph - N/A   Scattered Clouds
5:36 PM 21.2 °F - 17.6 °F 86% 30.27 in 10.0 mi Calm Calm - N/A   Mostly Cloudy
5:44 PM 21.2 °F - 17.6 °F 86% 30.27 in 10.0 mi Calm Calm - N/A   Scattered Clouds
5:45 PM 21.2 °F - 17.6 °F 86% 30.27 in 10.0 mi Calm Calm - N/A   Mostly Cloudy
5:55 PM 20.5 °F - 18.1 °F 91% 30.28 in 10.0 mi Calm Calm - N/A   Mostly Cloudy
6:31 PM 19.4 °F - 17.6 °F 93% 30.29 in 10.0 mi Calm Calm - N/A   Scattered Clouds
6:55 PM 19.0 °F - 17.6 °F 94% 30.29 in 10.0 mi Calm Calm - N/A   Clear
7:55 PM 17.8 °F - 16.5 °F 95% 30.30 in 10.0 mi Calm Calm - N/A   Clear
8:55 PM 16.7 °F - 14.7 °F 92% 30.31 in 10.0 mi Calm Calm - N/A   Clear
9:55 PM 16.0 °F - 14.0 °F 92% 30.34 in 10.0 mi Calm Calm - N/A   Clear
10:55 PM 14.4 °F - 12.7 °F 93% 30.38 in 10.0 mi Calm Calm - N/A   Clear
11:55 PM 13.6 °F - 12.2 °F 94% 30.39 in 10.0 mi Calm Calm - N/A   Clear